Terminal Aerodrome Forecast
Issued by NWS Sioux Falls, SD

Home | Current Version | Previous Version | Text Only | Print | Product List | Glossary On
Versions: 1 2 3 4 5 6 7 8 9 10 11 12 13 14 15 16 17 18 19 20 21 22 23 24 25 26 27 28 29 30 31 32 33 34 35 36 37 38 39 40
000
FTUS43 KFSD 200542 CCA
TAFSUX
TAF COR
KSUX 200542Z 2006/2106 30009KT P6SM BKN030
     FM200900 28006KT P6SM SCT035
     FM201800 VRB04KT P6SM SCT040
     FM210000 17006KT P6SM BKN040=

USA.gov is the U.S. government's official web portal to all federal, state and local government web resources and services.